sat.trackr.live / text

‹ back to catalog

LEGION 1

NORAD 59625 · 2024-081A

PAYLOAD ACTIVE UNKNOWN

§ Identity

Operator
Country
US
Launch date
2024-05-02
Launch site
AFWTR
Launch vehicle
Mass (kg)
RCS (m²)

Purposes: earth_obs

External: N2YO · Heavens-Above · Gunter

§ Orbital elements

Epoch: 2026-05-25T04:48:06.430752Z

Period
94.96 min
Inclination
97.5016°
Eccentricity
0.0011033
Mean motion
15.16474922 rev/d
Perigee alt
508.9 km
Apogee alt
524.1 km
Semi-major
6,894.6 km
B*
1.7834e-4
RAAN
223.3053°
Arg perigee
89.4835°
Mean anomaly
270.7662°
Rev number
11,405

§ Raw data

LEGION 11 59625U 24081A   26145.20007443  .00003409  00000+0  17834-3 0  99912 59625  97.5016 223.3053 0011033  89.4835 270.7662 15.16474922114052

JSON: /api/v1/satellites/59625 · /tle

For live sub-satellite position, see the globe view (requires WebGL).

§ Visibility from observer

Set your observer location to see the next 7 days of passes ≥ 10°. The values pass through the URL so the page stays shareable.

No JS? Fill the form by hand. The geolocation button needs JavaScript.